Lid_Strength_Index
6 10 13 12 11 10 10 12 14 12 9 11 12 11 10 8 7 7 6 5 5 5 3 2 2 2 2 1 1 1 1 1 1 1 2 2 2 1 0 0 -0 0 0 -0
9 10 8 9 7 9 10 13 14 11 10 11 12 12 9 8 8 7 7 6 5 5 4 3 3 2 2 2 1 1 1 1 1 1 1 1 1 1 0 0 0 0 0 0
10 8 6 9 9 10 11 12 13 13 11 10 12 13 12 9 8 7 6 6 5 5 5 4 3 3 2 2 2 1 1 1 1 1 1 1 0 1 1 1 1 0 0 0
9 7 7 10 11 8 14 10 11 12 13 17 11 19 13 11 10 8 7 7 6 5 4 4 3 3 3 2 1 1 1 1 1 0 1 2 2 3 1 1 0 0 0 0
10 9 9 9 10 9 12 9 11 11 14 14 14 17 14 11 12 10 8 7 6 5 4 4 3 3 2 2 2 1 1 1 1 1 1 1 2 1 1 1 1 1 0 0
8 6 8 8 7 7 8 10 11 12 14 19 15 16 16 14 12 10 8 7 6 5 4 3 3 2 3 2 2 1 1 1 1 1 1 1 2 2 2 2 1 1 1 0
9 9 7 6 10 8 9 12 18 20 20 20 14 16 14 11 9 8 8 7 6 5 5 4 4 4 3 3 2 2 2 2 1 1 1 1 1 2 2 2 2 2 1 1
12 13 8 6 8 10 11 12 17 21 21 19 14 18 14 9 7 6 6 6 5 5 4 4 4 3 3 3 2 2 2 2 1 1 1 1 1 1 1 1 1 1 1 1
13 11 7 6 6 7 10 12 10 16 15 18 16 14 11 8 8 7 7 6 6 5 5 4 4 3 3 3 2 2 2 2 1 1 1 1 1 1 1 1 1 1 0 0
10 13 9 7 7 8 9 8 14 15 20 21 18 17 16 12 10 8 7 7 6 6 5 4 4 3 3 2 2 2 1 2 1 1 1 1 1 1 1 1 1 1 1 2
10 11 10 8 10 11 12 13 12 12 14 19 20 18 11 11 9 9 8 6 6 5 5 4 4 3 3 2 2 2 2 2 2 1 1 1 1 1 1 1 1 0 1 3
8 11 13 11 8 7 9 12 12 15 15 14 16 15 8 8 8 8 8 6 5 5 5 4 4 3 3 3 2 2 2 2 1 1 1 1 1 1 1 1 1 1 3 1
8 11 14 12 10 8 10 10 10 11 13 14 14 16 8 8 8 6 7 6 6 5 5 4 4 4 4 3 3 3 2 2 2 1 1 1 1 1 1 1 1 0 1 0
6 11 13 15 14 10 11 9 9 11 15 13 13 14 11 9 9 8 7 6 6 5 5 5 4 4 4 3 3 3 3 2 3 3 2 2 2 2 2 1 1 1 0 1
9 12 11 10 9 9 9 9 9 11 12 13 12 12 11 10 9 8 7 6 6 6 5 5 5 4 4 3 3 2 2 2 1 2 2 2 1 1 1 1 1 1 0 0
8 12 11 12 9 9 10 9 9 10 11 12 11 13 9 8 7 8 8 7 7 7 6 5 4 4 4 3 3 3 3 2 1 2 2 1 1 2 2 2 1 1 1 1
10 11 13 15 10 11 13 11 10 10 10 11 14 11 8 9 8 7 7 7 7 6 6 5 5 4 4 3 3 3 2 2 2 2 2 1 2 2 2 1 2 1 1 1
10 11 12 15 13 18 12 8 8 9 9 9 10 9 8 8 7 6 6 6 6 6 5 5 5 4 3 2 2 2 2 2 2 2 2 2 2 2 3 2 1 1 1 2
7 10 13 16 17 14 11 9 10 11 12 8 9 9 8 7 7 7 5 5 5 5 6 6 6 6 4 3 2 2 3 2 2 2 2 2 2 3 2 2 2 3 5 6
8 9 12 13 15 19 13 8 7 7 14 7 8 8 8 8 12 10 5 5 6 5 5 6 7 6 6 6 5 5 6 5 5 3 2 2 2 2 2 2 1 3 5 6
13 13 14 14 16 14 9 8 7 14 14 7 7 7 8 10 8 6 6 6 6 7 6 6 7 8 8 7 7 8 7 7 6 5 3 3 2 2 2 2 2 3 5 6
13 14 15 14 16 17 7 7 11 9 7 6 7 7 7 7 6 5 6 6 7 6 6 7 8 8 7 7 7 7 7 6 6 5 4 4 2 2 3 3 3 3 4 6
13 11 13 12 13 8 7 7 6 5 7 6 6 6 6 6 6 5 6 6 6 6 7 6 6 7 7 6 7 8 6 6 5 5 5 4 7 8 4 3 4 4 5 5
9 8 10 11 9 8 6 5 5 5 5 5 5 5 5 6 5 5 5 6 6 7 6 6 6 6 6 6 6 6 5 6 6 5 5 7 10 11 11 9 11 11 11 8
9 8 9 9 8 7 6 5 5 5 4 4 4 4 5 5 5 5 5 5 5 5 5 5 6 6 6 6 5 5 4 5 6 5 6 6 9 12 14 15 13 13 15 14
7 9 11 12 8 8 7 5 3 5 5 4 5 5 4 4 5 4 5 5 5 5 5 5 5 6 6 6 6 5 4 4 5 5 6 6 6 8 10 12 14 14 14 14